This demonstration page uses our WeatherBlox Daily Observations layout. Learn more.

Left ArrowRight Arrow

Hourly Observations for August 26, 2022

Temp ( °F °C ) Dew Point ( °F °C ) Humidity (%) Winds ( mph kmh ) Pressure ( in mb ) Visibility ( mi km ) Precip ( " mm )
12:52 am 00:52 Clear 69 20.6 65 18.3 87 87 WNW 3 6 30.09 1019 10 16 0.00 0.00
1:52 am 01:52 Clear 67 19.4 63 17.2 87 87 Calm 30.08 1019 10 16 0.00 0.00
2:52 am 02:52 Clear 68 20 62 16.7 81 81 ESE 5 7 30.08 1019 10 16 0.00 0.00
3:52 am 03:52 Mostly Clear 64 17.8 63 17.2 96 96 N 3 6 30.07 1018 10 16 0.00 0.00
4:52 am 04:52 Mostly Cloudy 67 19.4 63 17.2 87 87 Calm 30.06 1018 10 16 0.00 0.00
5:34 am 05:34 Cloudy with Thunderstorms 67 19.4 63 17.2 87 87 SSE 7 11 30.06 1018 10 16 0.01 0.13
5:52 am 05:52 Mostly Cloudy 67 19.4 63 17.2 87 87 SSE 8 13 30.06 1018 10 16 0.01 0.13
6:52 am 06:52 Mostly Cloudy 67 19.4 63 17.2 87 87 ENE 5 7 30.09 1019 10 16 0.00 0.00
7:14 am 07:14 Mostly Cloudy with Nearby Thunderstorms 66 18.9 64 17.8 93 93 N 12 19 30.11 1020 10 16 0.00 0.00
7:26 am 07:26 Cloudy with Thunderstorms 65 18.3 64 17.8 97 97 NNE 10 17 30.11 1020 10 16 0.00 0.00
7:46 am 07:46 Mostly Cloudy 66 19 64 18 94 94 SE 10 17 30.08 1019 10 16 0.00 0.00
7:52 am 07:52 Cloudy 67 19.4 64 17.8 90 90 SE 10 17 30.07 1018 10 16 0.00 0.00
8:52 am 08:52 Cloudy with Light Rain 67 19.4 65 18.3 93 93 SSE 9 15 30.08 1019 10 16 0.01 0.13
9:32 am 09:32 Mostly Cloudy with Thunderstorms 67 19.4 65 18.3 93 93 SSE 9 15 30.08 1018 10 16 0.01 0.25
9:52 am 09:52 Mostly Cloudy with Thunderstorms 68 20 66 18.9 93 93 ENE 6 9 30.10 1019 10 16 0.01 0.25
10:31 am 10:31 Mostly Cloudy 68 20 66 18.9 93 93 ESE 7 11 30.08 1019 10 16 0.06 1.52
10:52 am 10:52 Mostly Cloudy 68 20 66 18.9 93 93 SE 13 20 30.07 1018 10 16 0.06 1.52
11:52 am 11:52 Mostly Cloudy 70 21.1 67 19.4 90 90 SSE 10 17 30.06 1018 10 16 0.01 0.13
12:52 pm 12:52 Mostly Cloudy 74 23.3 67 19.4 79 79 SSE 14 22 30.04 1017 10 16 0.00 0.00
1:52 pm 13:52 Mostly Cloudy 78 25.6 68 20 71 71 SSE 9 15 30.01 1016 10 16 0.00 0.00
2:52 pm 14:52 Mostly Cloudy 80 26.7 67 19.4 64 64 SSE 8 13 29.99 1016 10 16 0.00 0.00
3:52 pm 15:52 Mostly Cloudy 81 27.2 67 19.4 62 62 ESE 12 19 29.97 1015 10 16 0.00 0.00
4:52 pm 16:52 Mostly Cloudy 81 27.2 68 20 65 65 SE 15 24 29.95 1014 10 16 0.00 0.00
5:52 pm 17:52 Mostly Cloudy 81 27.2 71 21.7 72 72 SSE 15 24 29.93 1014 10 16 0.00 0.00
6:52 pm 18:52 Mostly Cloudy 79 26.1 71 21.7 77 77 SE 15 24 29.92 1013 10 16 0.00 0.00
7:52 pm 19:52 Mostly Cloudy 77 25 71 21.7 82 82 SE 10 17 29.91 1013 10 16 0.00 0.00
8:52 pm 20:52 Mostly Cloudy 76 24.4 71 21.7 85 85 SE 14 22 29.92 1013 10 16 0.00 0.00
9:52 pm 21:52 Mostly Cloudy 75 23.9 70 21.1 84 84 SSE 15 24 29.92 1013 10 16 0.00 0.00
10:52 pm 22:52 Mostly Cloudy 74 23.3 70 21.1 87 87 SSE 14 22 29.91 1013 10 16 0.00 0.00
11:52 pm 23:52 Mostly Cloudy 74 23.3 69 20.6 85 85 SSE 10 17 29.91 1013 10 16 0.00 0.00

Powered by AerisWeather